Regional Weather Roundup
Issued by NWS

Home | Current Version | Previous Version | Text Only | Print | Product List | Glossary On
Versions: 1 2 3 4 5 6 7 8 9 10 11 12 13 14 15 16 17 18 19 20 21 22 23 24 25 26 27 28 29 30 31 32 33 34 35 36 37 38 39 40 41 42 43 44 45 46 47 48 49 50
000
ASUS43 KDTX 231210
RWRMI
MICHIGAN HOURLY REGIONAL WEATHER ROUNDUP
NATIONAL WEATHER SERVICE DETROIT/PONTIAC MI
700 AM EST THU FEB 23 2017

NOTE: "FAIR" INDICATES FEW OR NO CLOUDS BELOW 12,000 FEET WITH NO
SIGNIFICANT WEATHER AND/OR OBSTRUCTION TO VISIBILITY.

MIZ047>049-052>055-059>063-066>070-074>076-081>083-231300-
SOUTHEAST LOWER MICHIGAN

CITY           SKY/WX    TMP DP  RH WIND       PRES   REMARKS
ADRIAN         CLEAR     51  51 100 W7        29.70R
6HR MIN TEMP:  51; 6HR MAX TEMP:  56;

ALMA           CLEAR     49  46  86 SW8       29.63S
ANN ARBOR      MOCLDY    53  52  96 S7        29.67R
BAD AXE        CLOUDY    56  51  83 W10G16    29.58R
6HR MIN TEMP:  52; 6HR MAX TEMP:  58;

CARO           MOCLDY    56  51  85 SW15      29.59R
DETROIT CITY   CLEAR     57  53  86 SW13      29.65S
6HR MIN TEMP:  54; 6HR MAX TEMP:  59;

DETROIT        MOCLDY    56  53  90 SW14      29.67S
6HR MIN TEMP:  53; 6HR MAX TEMP:  59;

FLINT          PTCLDY    55  50  83 W10G20    29.64R
6HR MIN TEMP:  56; 6HR MAX TEMP:  59;

GROSSE ILE     PTCLDY    56  52  87 SW9G16    29.66S
6HR MIN TEMP:  41; 6HR MAX TEMP:  57;

HILLSDALE      CLOUDY    54  50  87 SW9       29.69S
HOWELL         CLOUDY    56  49  79 W15       29.65R
6HR MIN TEMP:  55; 6HR MAX TEMP:  58;


CITY           SKY/WX    TMP DP  RH WIND       PRES   REMARKS
JACKSON        MOCLDY    55  50  83 W9        29.67R
6HR MIN TEMP:  55; 6HR MAX TEMP:  59;

LAMBERTVILLE   CLOUDY    59  54  82 SW12G17   29.69S
6HR MIN TEMP:  58; 6HR MAX TEMP:  59;

LANSING        CLEAR     53  47  79 SW10      29.66R
6HR MIN TEMP:  53; 6HR MAX TEMP:  58;

LAPEER         CLOUDY    57  51  80 W12       29.62R
6HR MIN TEMP:  55; 6HR MAX TEMP:  59;

MASON          PTCLDY    54  50  87 W5        29.67R
MONROE         CLEAR     56  54  91 SW12G20   29.67S
6HR MIN TEMP:  55; 6HR MAX TEMP:  59;

MT. CLEMENS    PTCLDY    57  56  95 SW13      29.62S
6HR MIN TEMP:  50; 6HR MAX TEMP:  58;

PONTIAC        MOCLDY    55  51  86 SW8       29.63R
6HR MIN TEMP:  54; 6HR MAX TEMP:  57;

PORT HOPE        N/A     57  52  83 VRB7      29.54R
6HR MIN TEMP:  41; 6HR MAX TEMP:  58;

PORT HURON     MOCLDY    52  52 100 SW6       29.63S FOG
TRI CITIES     CLEAR     52  49  89 SW10      29.60S
6HR MIN TEMP:  52; 6HR MAX TEMP:  59;

MIDLAND        FAIR      53  45  76 W8        29.59R
6HR MIN TEMP:  53; 6HR MAX TEMP:  59;

TROY           PTCLDY    56  52  85 SW9       29.66R
SAGINAW HB     CLEAR     54  46  76 SW9       29.60R
$$
MIZ043>046-050>051-056>058-064>065-071>073-077>080-231300-
SOUTHWEST LOWER MICHIGAN

CITY           SKY/WX    TMP DP  RH WIND       PRES   REMARKS
BATTLE CREEK   CLEAR     49  48  97 W6        29.69R
6HR MIN TEMP:  49; 6HR MAX TEMP:  57;

BENTON HARBOR  CLEAR     45  42  89 W8        29.72R
6HR MIN TEMP:  44; 6HR MAX TEMP:  62;

BIG RAPIDS     CLOUDY    44  40  86 W6        29.64R
6HR MIN TEMP:  44; 6HR MAX TEMP:  57;

COLDWATER      CLOUDY    53  51  93 W7        29.70S
6HR MIN TEMP:  53; 6HR MAX TEMP:  58;

FREMONT        CLOUDY    41  40  97 NW9       29.68R FOG
HOLLAND        CLEAR     47  42  83 W7        29.70R
6HR MIN TEMP:  47; 6HR MAX TEMP:  60;

GRAND RAPIDS   CLEAR     47  42  83 W9        29.67R
6HR MIN TEMP:  47; 6HR MAX TEMP:  58;

IONIA          FAIR      47  44  88 SW12      29.65R
6HR MIN TEMP:  47; 6HR MAX TEMP:  57;

KALAMAZOO      CLEAR     50  46  86 SW7       29.69R
6HR MIN TEMP:  50; 6HR MAX TEMP:  59;

LUDINGTON      CLOUDY    37  37 100 N9        29.70R WCI  31
6HR MIN TEMP:  37; 6HR MAX TEMP:  51;

MARSHALL       PTCLDY    53  51  94 SW8       29.68S
6HR MIN TEMP:  53; 6HR MAX TEMP:  59;

MOUNT PLEASANT CLEAR     49  45  88 SW7       29.61R
6HR MIN TEMP:  49; 6HR MAX TEMP:  58;

MUSKEGON       FOG       39  38  96 NW8       29.70R VSB 3/4 WCI  33
6HR MIN TEMP:  39; 6HR MAX TEMP:  53;

SOUTH HAVEN    CLEAR     47  44  89 W7        29.71R
$$
MIZ016>042-231300-
NORTHERN LOWER MICHIGAN

CITY           SKY/WX    TMP DP  RH WIND       PRES   REMARKS
ALPENA         CLOUDY    47  46  97 W12G17    29.54R FOG
6HR MIN TEMP:  44; 6HR MAX TEMP:  49; 6HR PCP:  0.01;

BEAVER ISLAND  CLOUDY    35  35 100 NW10G17   29.64R WCI  27
6HR MIN TEMP:  35; 6HR MAX TEMP:  39;

BELLAIRE       CLOUDY    37  37  99 W5        29.66R FOG     WCI  33
6HR MIN TEMP:  37; 6HR MAX TEMP:  45;

CADILLAC       CLOUDY    40  39  94 NW8       29.63R FOG     WCI  35
CHARLEVOIX     CLOUDY    36  36 100 W6        29.66R WCI  31
FRANKFORT      CLOUDY    37  36  94 NW8       29.69R WCI  31
GAYLORD        CLOUDY    38  35  89 W8G20     29.58R FOG     WCI  32
6HR MIN TEMP:  38; 6HR MAX TEMP:  50; 6HR PCP: TRACE;

GRAYLING       CLOUDY    40  39  96 W13G22    29.61R FOG     WCI  33
HARBOR SPRINGS CLOUDY    37  37 100 W3        29.61R
HOUGHTON LAKE  CLOUDY    42  40  92 W12G20    29.61R FOG
6HR MIN TEMP:  43; 6HR MAX TEMP:  54;

MANISTEE       CLOUDY    37  36  96 NW10      29.70R WCI  30
OSCODA         CLEAR     50  48  94 W9        29.52R FOG
6HR MIN TEMP:  50; 6HR MAX TEMP:  53;

PELLSTON       CLOUDY    36  34  92 NW14      29.61R FOG     WCI  27
6HR MIN TEMP:  36; 6HR MAX TEMP:  41; 6HR PCP:  0.02;

ROGERS CITY    CLOUDY    40  38  95 W7        29.56R FOG     WCI  35
TRAVERSE CITY  CLOUDY    39  36  89 NW7       29.66R WCI  34
6HR MIN TEMP:  38; 6HR MAX TEMP:  47;

$$
MIZ007>008-015-231300-
EASTERN UPPER MICHIGAN

CITY           SKY/WX    TMP DP  RH WIND       PRES   REMARKS
KINROSS        RAIN      36  36 100 NW17G24   29.57R WCI  26
6HR MIN TEMP:  35; 6HR MAX TEMP:  38; 6HR PCP:  0.18;

MACKINAC ISLAN CLOUDY    35  35 100 NW7       29.58R WCI  29
6HR MIN TEMP:  35; 6HR MAX TEMP:  39; 6HR PCP:  0.07;

NEWBERRY       LGT SNOW  32  32 100 NW10      29.63R WCI  24
S. S. MARIE    LGT RAIN  37  35  92 W10       29.57R WCI  30
6HR MIN TEMP:  36; 6HR MAX TEMP:  40; 6HR PCP:  0.17;

MUNISING         N/A     34  32  92 N14G23    29.72R WCI  25
6HR MIN TEMP:  33; 6HR MAX TEMP:  36; 6HR PCP:  0.15;

$$
MIZ004>006-011>014-085-231300-
CENTRAL UPPER MICHIGAN

CITY           SKY/WX    TMP DP  RH WIND       PRES   REMARKS
MANISTIQUE     CLOUDY    33  32  96 NW16      29.67R WCI  22
6HR MIN TEMP:  33; 6HR MAX TEMP:  36; 6HR PCP:  0.03;

ESCANABA       CLOUDY    34  30  85 N10G21    29.71R WCI  26
6HR MIN TEMP:  34; 6HR MAX TEMP:  37; 6HR PCP: TRACE;

MENOMINEE      MOCLDY    36  30  79 N16       29.71S WCI  26
6HR MIN TEMP:  36; 6HR MAX TEMP:  40; 6HR PCP: TRACE;

SAWYER-GWINN   CLOUDY    30  28  93 N13G20    29.74R WCI  20
$$
MIZ001>003-009>011-084-231300-
WESTERN UPPER MICHIGAN

CITY           SKY/WX    TMP DP  RH WIND       PRES   REMARKS
IRON MOUNTAIN  CLOUDY    32  27  81 NW18G24   29.72S WCI  20
6HR MIN TEMP:  32; 6HR MAX TEMP:  37; 6HR PCP:  0.09;

HOUGHTON       CLEAR     28  21  75 N6        29.78S WCI  22
6HR MIN TEMP:  28; 6HR MAX TEMP:  33; 6HR PCP:  0.01;

COPPER HARBOR    N/A     34  25  69 NE16      29.78R WCI  24
6HR MIN TEMP:  34; 6HR MAX TEMP:  35;

IRONWOOD       CLOUDY    30  29  96 CALM      29.84R
6HR MIN TEMP:  30; 6HR MAX TEMP:  32; 6HR PCP:  0.01;

$$

ABBREVIATIONS USED IN REMARKS
   TC - TEMPERATURE IN CELSIUS
  WCI - WIND CHILL INDEX
   HX - HEAT INDEX
  VSB - VISIBILITY





USA.gov is the U.S. government's official web portal to all federal, state and local government web resources and services.